Regional Weather Roundup
Issued by NWS

Home | Current Version | Previous Version | Graphics & Text | Print | Product List | Glossary On
Versions: 1 2 3 4 5 6 7 8 9 10 11 12 13 14 15 16 17 18 19 20 21 22 23 24 25 26 27 28 29 30 31 32 33 34 35 36 37 38 39 40 41 42 43 44 45 46 47 48 49 50
242
ASUS43 KBIS 241902
RWRND

NORTH DAKOTA REGIONAL WEATHER ROUNDUP
NATIONAL WEATHER SERVICE BISMARCK ND
200 PM CDT SAT SEP 24 2016

NOTE: "FAIR" INDICATES FEW OR NO CLOUDS BELOW 12,000 FEET WITH NO
SIGNIFICANT WEATHER AND/OR OBSTRUCTIONS TO VISIBILITY.


NDZ001>003-009>011-017-242000-
NORTHWEST NORTH DAKOTA

CITY           SKY/WX    TMP DP  RH WIND       PRES   REMARKS
WILLISTON      CLOUDY    57  55  93 N16       29.72S FOG
MINOT          CLOUDY    74  64  71 E12       29.69F
MINOT AFB      CLOUDY    74  65  73 SE12      29.68F
$$

NDZ018>021-031>035-040>046-242000-
SOUTHWEST NORTH DAKOTA

CITY           SKY/WX    TMP DP  RH WIND       PRES   REMARKS
BISMARCK       MOSUNNY   77  60  55 S21G30    29.71R
DICKINSON      PTSUNNY   67  58  72 S17       29.67S
GARRISON         N/A     72  65  78 SE9       29.68F
HETTINGER ARPT MOSUNNY   66  52  60 S18G28    29.73S
$$

NDZ004>008-012>016-024-026-027-054-242000-
NORTHEAST NORTH DAKOTA

CITY           SKY/WX    TMP DP  RH WIND       PRES   REMARKS
GRAND FORKS    LGT RAIN  76  66  71 SE21G30   29.82F
GRND FRKS AFB  PTSUNNY   74  67  77 S15       29.82F
DEVILS LAKE    CLOUDY    70  66  87 SE12      29.78F
$$

NDZ022-023-025-028>030-036>039-047>053-242000-
SOUTHEAST NORTH DAKOTA

CITY           SKY/WX    TMP DP  RH WIND       PRES   REMARKS
FARGO          MOSUNNY   79  65  62 SE24G32   29.83F
JAMESTOWN      CLOUDY    74  67  78 S14       29.78F
$$





USA.gov is the U.S. government's official web portal to all federal, state and local government web resources and services.